Location: Del Amo
(33.8464°N, 118.2104°W)
Time: 17:28:18
(UTC+00:00)

Vanguard 2 Rocket - Pass Details

Date: 15 September 2024
Orbit: 553 x 3298 km, 32.9° (Epoch: 11 October)

Event Time Altitude Azimuth Distance (km) Brightness Sun altitude
Rises 08:41:11 0° 238° (WSW) 4,034 - -51.3°
Reaches altitude 10° 08:43:29 10° 234° (SW) 3,336 - -51.1°
Maximum altitude 08:52:12 64° 155° (SSE) 2,086 - -50.4°
Exits shadow 08:57:23 42° 94° (E) 2,975 9.4 -49.9°
Drops below altitude 10° 09:07:40 10° 79° (E) 5,642 11.2 -48.8°
Sets 09:12:50 0° 77° (ENE) 6,952 11.8 -48.3°
